This is the latest recevied weather packets stored in our database for station/object N3EYQ. If no packets are shown the sender has not sent any weather packets the latest 10 day(s).
| Time | Temp. | Humidity | Pressure | Rain* | Wind** | Luminosity | Snow |
|---|---|---|---|---|---|---|---|
| 1777921232 | 21.67° C | 32% | 1008.3 hPa | 0 mm | - | - | - |
| 1777920632 | 21.11° C | 33% | 1008.3 hPa | 0 mm | - | - | - |
| 1777920032 | 21.11° C | 32% | 1008.3 hPa | 0 mm | - | - | - |
| 1777919432 | 21.67° C | 32% | 1008.6 hPa | 0 mm | - | - | - |
| 1777918831 | 21.67° C | 30% | 1008.6 hPa | 0 mm | - | - | - |
| 1777918232 | 22.22° C | 30% | 1008.9 hPa | 0 mm | - | - | - |
| 1777917631 | 22.22° C | 32% | 1008.9 hPa | 0 mm | - | - | - |
| 1777917032 | 22.22° C | 32% | 1008.9 hPa | 0 mm | - | - | - |
| 1777916431 | 21.67° C | 31% | 1009.3 hPa | 0 mm | - | - | - |
| 1777915831 | 21.67° C | 32% | 1009.3 hPa | 0 mm | - | - | - |
| 1777915231 | 21.67° C | 32% | 1009.3 hPa | 0 mm | - | - | - |
| 1777914631 | 21.11° C | 33% | 1009.6 hPa | 0 mm | - | - | - |
| 1777914031 | 22.22° C | 32% | 1009.6 hPa | 0 mm | - | - | - |
| 1777913431 | 21.67° C | 33% | 1009.6 hPa | 0 mm | - | - | - |
| 1777912830 | 21.67° C | 32% | 1010 hPa | 0 mm | - | - | - |
| 1777912230 | 21.11° C | 33% | 1010 hPa | 0 mm | - | - | - |
| 1777911630 | 21.11° C | 32% | 1010 hPa | 0 mm | - | - | - |
| 1777911030 | 20.56° C | 34% | 1010 hPa | 0 mm | - | - | - |
| 1777910431 | 20.56° C | 33% | 1010.3 hPa | 0 mm | - | - | - |
| 1777909829 | 21.11° C | 33% | 1010 hPa | 0 mm | - | - | - |
| 1777909229 | 20° C | 35% | 1010.3 hPa | 0 mm | - | - | - |
| 1777908629 | 20° C | 34% | 1010.6 hPa | 0 mm | - | - | - |
| 1777908029 | 20° C | 37% | 1010.6 hPa | 0 mm | - | - | - |
| 1777907429 | 19.44° C | 36% | 1011 hPa | 0 mm | - | - | - |
| 1777906829 | 18.89° C | 34% | 1011 hPa | 0 mm | - | - | - |
* Rain latest hour (hover to see other rain measurements)
** Current wind speed in m/s (hover to see current wind gust speed)